Location: Tucson
(32.2217°N, 110.9265°W)
Time: 09:17:17
(UTC-07:00)

Envisat - Pass Details

Date: 06 October 2022
Orbit: 763 x 765 km, 98.2° (Epoch: 29 November)

Event Time Altitude Azimuth Distance (km) Brightness Sun altitude
Rises 05:10:07 0° 3° (N) 3,234 6.3 -15.8°
Reaches altitude 10° 05:12:31 10° 356° (N) 2,304 5.5 -15.3°
Maximum altitude 05:17:16 42° 287° (WNW) 1,089 3.3 -14.3°
Drops below altitude 10° 05:21:59 10° 218° (SW) 2,291 5.1 -13.3°
Sets 05:24:23 0° 211° (SSW) 3,213 5.9 -12.8°
